User: anonymous   Login
Location: Mt. Chestnut Observatory
(40.9038°N, 79.9956°W)
Time: 14:40:31
(UTC-04:00)
Language:

Cosmos 2034 Rocket - Orbit

View from above orbital plane
View from above orbital plane
View from above satellite
View from above satellite

Ground track
Ground track

The orbit data is extracted from the following two-line orbital elements,

1 20150U 89059B   17207.94842885 -.00000012 +00000-0 -28596-4 0  9993
2 20150 082.9379 064.5970 0029164 168.9078 323.6562 13.75638392405643
Epoch (UTC): 26 July 2017 22:45:44
Eccentricity: 0.0029164
inclination: 82.9379°
perigee height: 958 km
apogee height: 1001 km
right ascension of ascending node: 64.5970°
argument of perigee: 168.9078°
revolutions per day: 13.75638392
mean anomaly at epoch: 323.6562°
orbit number at epoch: 40564

The dashed part of the orbit path shows where the satellite is in the earth's shadow,  

DLR